Location: Akhali Kadoyeti
(42.0050°N, 44.5756°E)
Time: 10:39:46
(UTC+00:00)

Daily predictions for brighter satellites

Satellite Brightness Start Highest point End
(mag) Time Altitude Azimuth Time Altitude Azimuth Time Altitude Azimuth
Tsikada Rocket 4.0 15:34:35 10° N 15:40:54 71° E 15:47:14 10° SSE
NOSS 2-1 (C) 4.4 15:37:39 10° NNW 15:41:12 33° NE 15:45:53 10° ESE
Cosmos 1536 4.4 15:40:00 10° ESE 15:42:04 14° E 15:44:08 10° NE
Cosmos 2278 Rocket 3.3 15:38:44 10° N 15:43:32 27° NE 15:48:19 10° ESE
Meteor 2-4 Rocket 3.8 15:37:46 10° N 15:43:43 82° E 15:49:33 10° SSE
Cosmos 1842 4.5 15:42:12 10° NNE 15:44:54 20° ENE 15:47:35 10° ESE
Okean O Rocket 3.7 15:44:28 10° ENE 15:45:34 11° ENE 15:46:39 10° NE
CZ-4B R/B 4.3 15:44:32 10° ESE 15:48:47 24° ENE 15:52:59 10° NNE
Cosmos 1707 4.1 15:46:41 10° NNE 15:49:10 18° ENE 15:51:38 10° ESE
DMSP B5D1-3 4.5 15:44:34 10° NNE 15:49:36 64° ESE 15:54:38 10° S
USA 229 DEB 4.3 15:42:05 10° NW 15:49:41 79° WSW 15:57:52 10° SSE
USA 229 4.2 15:42:20 10° NW 15:49:55 79° WSW 15:58:04 10° SSE
Kosmos-1783 4.0 15:51:17 10° SW 15:54:01 38° NW 15:55:54 10° NNE
ADEOS 3.7 15:50:19 10° SSE 15:55:23 56° ENE 16:00:29 10° N
TSX-5 3.4 15:52:41 10° NNW 15:55:46 54° ENE 15:59:02 10° SE
Cosmos 2360 Rocket 4.5 15:51:18 10° WSW 15:56:03 27° NW 16:00:51 10° N
GEOS 3 Rocket 4.4 15:51:44 10° ESE 15:56:30 37° NE 16:01:14 10° NNW
Cosmos 44 Rocket 3.4 15:51:57 10° NW 15:56:42 76° WSW 16:01:20 10° SSE
CZ-4 R/B 2.1 15:54:21 10° SE 15:57:43 31° ENE 16:01:11 10° N
Cosmos 1766 Rocket 3.7 15:53:54 10° S 15:58:06 52° E 16:02:22 10° NNE
Cosmos 1814 Rocket 4.0 15:54:03 10° S 15:59:18 67° ESE 16:04:31 10° NNE
Resurs 01 Rocket 2.7 15:55:46 10° ESE 15:59:24 26° ENE 16:03:03 10° NNE
CZ-4B R/B 3.4 15:55:19 10° SSE 15:59:58 60° ENE 16:04:42 10° N
Cosmos 1626 4.1 15:58:31 10° NNW 16:01:05 26° W 16:03:38 10° SSW
YAOGAN 1 3.2 15:58:20 10° S 16:02:33 59° W 16:06:48 10° NNW
Helios 1A 3.0 16:02:29 10° NNE 16:06:29 54° E 16:10:27 10° S
SPOT 1/Viking Rocket 3.5 16:01:43 10° SSE 16:06:50 68° ENE 16:11:59 10° N
USA 306 4.1 16:05:41 10° W 16:08:18 28° NNW 16:11:23 10° NE
Cosmos 2237 Rocket 2.6 16:03:30 10° S 16:08:37 38° ESE 16:13:46 10° NE
Cosmos 1743 3.7 16:09:07 10° SSW 16:12:33 46° W 16:16:00 10° N
USA 290 2.9 16:09:49 10° N 16:12:54 36° ENE 16:14:47 19° ESE
CSL-04 Rocket 4.4 16:08:31 11° SE 16:12:57 33° ENE 16:17:39 10° N
Cosmos 2219 Rocket 3.9 16:08:15 10° SW 16:13:26 36° WNW 16:18:40 10° N
USA 186 2.7 16:12:39 18° ESE 16:14:22 29° ENE 16:17:13 10° N
Helios 1B rocket 4.1 16:12:01 10° SSW 16:15:30 33° W 16:19:01 10° NNW
KORONAS-FOTON 3.8 16:12:21 10° N 16:15:58 50° E 16:19:33 10° SSE
Meteor 1-14 Rocket 4.1 16:10:39 10° S 16:16:07 65° E 16:21:36 10° NNE
SKYMED 3 4.4 16:13:12 10° NNE 16:17:22 88° ESE 16:21:27 10° SSW
SL-08 R/B 3.5 16:12:45 10° NNE 16:17:42 85° WNW 16:22:36 10° SSW
CZ-4B R/B 2.9 16:14:11 10° SSE 16:17:53 53° ENE 16:21:49 10° N
NOSS 2-1 (E) 3.7 16:14:27 10° NNW 16:18:27 67° NE 16:23:05 15° SE
Meteor 1-11 Rocket 4.3 16:14:19 10° SSE 16:19:22 35° E 16:24:22 10° NNE
ISS -3.8 16:18:26 10° WSW 16:21:47 83° NW 16:24:45 13° NE
NOSS 2-1 (D) 3.6 16:22:08 10° NW 16:26:09 83° NE 16:30:38 16° SE
BREEZE-M R/B 4.4 16:23:38 10° WNW 16:27:53 51° NNE 16:38:58 14° E
Cosmos 1328 Rocket 3.6 16:24:38 10° N 16:28:57 81° W 16:33:14 10° S
Cosmos 158 Rocket 4.2 16:25:25 10° S 16:29:56 38° ESE 16:34:26 10° NE
Cosmos 1356 Rocket 3.4 16:28:52 10° N 16:33:02 62° ENE 16:36:04 17° SSE
Lacrosse 4 Rocket 2.9 16:30:22 10° NW 16:34:21 36° WSW 16:38:16 10° S
SJ-6B 3.2 16:30:50 10° S 16:34:23 57° W 16:37:57 10° NNW
CARTOSAT-1 3.5 16:32:20 17° SSE 16:35:27 59° ENE 16:39:39 10° N
Cosmos 1674 3.3 16:32:41 10° NNW 16:35:54 48° W 16:39:05 10° S
Iridium 4 Rocket 4.0 16:32:23 10° NNW 16:36:23 47° W 16:40:24 10° SSW
Cosmos 1980 3.6 16:32:23 10° SSW 16:38:00 72° ESE 16:43:42 10° NNE
Cosmos 1891 Rocket 4.5 16:33:08 10° S 16:39:12 88° W 16:45:25 10° N
In-Cosmos 22 4.4 16:33:42 10° N 16:39:15 52° ENE 16:42:48 21° SE
ARGOS Delta rocket 4.0 16:34:36 10° S 16:39:43 82° W 16:44:35 10° NNW
Cosmos 2369 Rocket 4.2 16:37:58 10° NNE 16:40:01 12° NE 16:41:39 11° ENE
ATLAS CENTAUR R/B 0.9 16:36:42 10° SSW 16:40:08 62° ESE 16:43:47 10° NE
NOSS 0 Rocket 4.1 16:35:49 10° SSW 16:42:03 81° WNW 16:48:20 10° NNE
ACS3 Solar Sail 2.2 16:39:03 21° SE 16:43:04 46° ENE 16:49:08 10° N
Meteor 1-4 Rocket 2.9 16:43:13 10° NNW 16:45:46 43° W 16:47:15 20° SSW
Nadezhda 4 Rocket 4.0 16:41:50 10° N 16:48:02 59° E 16:52:29 20° SSE
Cosmos 1943 Rocket 2.3 16:43:10 10° NNW 16:48:36 56° ENE 16:51:02 31° SE
CSL-04 Debris 4.1 16:44:23 17° SSE 16:48:40 72° ENE 16:54:08 10° N
Cosmos 1733 2.7 16:46:08 10° S 16:49:33 83° E 16:53:00 10° N
Cosmos 1570 Rocket 3.9 16:48:29 10° SSW 16:53:45 77° ESE 16:59:02 10° NNE
ERS-1 Rocket 4.5 16:54:13 20° ENE 16:54:13 20° ENE 16:57:38 10° NNE
Sich 1 3.3 16:54:21 42° E 16:54:21 42° E 16:58:23 10° NNE
Terra 3.6 16:56:29 16° NE 16:56:29 16° NE 16:58:38 10° NNE
SWARM A 4.2 16:56:03 59° SE 16:56:33 72° E 17:00:03 10° N
USA 32 4.4 16:52:36 10° N 16:57:33 41° E 16:58:24 38° ESE
BREEZE-M DEB (TANK) 3.8 16:56:41 10° SW 17:08:31 - ENE 16:58:16 34° S
USA 276 3.0 16:58:03 10° NW 17:00:10 37° NNW 17:00:10 37° NNW
BlueWalker 3 2.9 16:59:23 10° WNW 17:02:53 38° SW 17:03:43 33° SSW
Cosmos 1464 Rocket 4.1 16:56:38 10° S 17:02:56 84° W 17:09:21 10° N
Cosmos 836 Rocket 4.4 16:59:26 10° S 17:04:38 62° ESE 17:09:52 10° NNE
Cosmos 1634 Rocket 4.4 17:07:18 37° E 17:07:49 38° E 17:13:34 10° NNE
SL-16 R/B 3.6 17:11:47 22° ENE 17:11:47 22° ENE 17:14:01 10° NE
USA 59 Rocket 1.3 17:06:23 10° NW 17:10:28 44° WSW 17:13:41 22° S
Cosmos 1805 4.5 17:13:03 28° NNE 17:13:03 28° NNE 17:14:55 10° NNE
Cosmos 1125 Rocket 3.4 17:08:13 10° NNW 17:13:27 89° WSW 17:15:10 44° SSE
BREEZE-M DEB (TANK) 4.2 17:11:56 10° NW 17:13:37 20° N 17:13:37 20° N
Cosmos 1315 Rocket 2.7 17:10:12 10° N 17:14:01 75° NE 17:14:01 75° NE
Cosmos 1536 4.2 17:14:03 10° SW 17:17:34 36° WNW 17:21:08 10° N
Okean O Rocket 1.6 17:20:21 60° S 17:21:08 82° WSW 17:25:35 10° NNW
Cosmos 1515 Rocket 4.4 17:17:11 10° NNW 17:21:21 47° W 17:23:39 24° SSW
Cosmos 773 Rocket 4.2 17:25:49 52° ENE 17:25:49 52° ENE 17:30:10 10° NNE
Cosmos 2034 Rocket 4.0 17:18:56 10° S 17:25:10 83° W 17:31:22 10° N
Meteor 2-9 Rocket 4.3 17:21:53 10° SSW 17:27:11 69° WNW 17:32:36 10° N
Cosmos 2278 Rocket 3.0 17:22:25 10° NW 17:27:49 47° WSW 17:30:47 25° SSW
NOSS 3-3 (C) 3.7 17:22:47 10° SW 17:28:04 83° NW 17:34:15 10° NE
CZ-4B R/B 4.0 17:25:01 17° S 17:29:01 49° W 17:34:14 10° NNW
Cosmos 1627 Rocket 4.4 17:24:43 10° N 17:30:59 66° E 17:31:55 58° SE
CZ-4 R/B 3.9 17:29:40 10° SW 17:32:18 18° W 17:35:00 10° NW
MetOp-B 4.0 17:33:31 66° E 17:33:37 66° ENE 17:38:56 10° N
Cosmos 1500 Rocket 4.0 17:33:47 45° SW 17:34:52 60° W 17:39:11 10° N
Resurs 01 Rocket 3.3 17:32:51 16° SSW 17:35:41 30° W 17:39:36 10° NW
Meteor 1-23 Rocket 4.1 17:32:55 10° N 17:38:35 89° WSW 17:39:25 67° S
Cosmos 1743 Rocket 4.1 17:42:18 55° NNW 17:42:18 55° NNW 17:45:51 10° N
SPOT 5 3.0 17:43:05 64° N 17:43:05 64° N 17:46:53 10° NNW
NOSS 3-3 (A) 4.1 17:37:08 10° SW 17:42:24 62° NW 17:48:33 10° NNE
Okean-O 3.1 17:45:38 58° NNW 17:45:38 58° NNW 17:49:15 10° NNW
Aureole 3 Rocket 4.4 17:42:21 10° SSW 17:49:30 60° W 17:54:38 10° N
MOS 1 4.3 17:49:05 67° SSW 17:49:48 77° WSW 17:55:31 10° NNW
BREEZE-M DEB (TANK) 4.4 17:33:06 10° W 17:50:56 51° N 17:53:04 36° NE
Cosmos 2237 Rocket 3.8 17:47:40 10° WSW 17:52:41 32° WNW 17:57:43 10° N
Cosmos 1607 3.9 17:46:47 10° SSW 17:53:15 88° ESE 17:59:44 10° NNE
ISS -0.8 17:56:21 10° WNW 17:57:44 17° NW 17:57:44 17° NW
MOS 1 Rocket 4.0 18:06:29 59° NW 18:06:29 59° NW 18:10:51 10° NNW
Cosmos 2297 4.4 18:00:54 10° NNW 18:05:10 45° NNE 18:05:10 45° NNE
NOSS 3-4 (A) 4.1 18:02:52 10° NNW 18:09:37 54° NE 18:09:46 54° NE
NOSS 3-4 (C) 4.1 18:02:59 10° NNW 18:09:43 53° NE 18:09:52 53° NE
ATLAS CENTAUR R/B 4.2 18:16:00 10° WNW 18:17:57 14° NW 18:19:54 10° N
Cosmos 2369 Rocket 3.1 18:19:33 10° NNW 18:23:25 42° N 18:23:25 42° N
ACS3 Solar Sail 3.4 18:24:20 21° SW 18:27:13 30° W 18:32:47 10° NNW
Cosmos 1943 Rocket 4.1 18:27:55 10° NW 18:31:50 20° W 18:32:34 20° WSW
ERS-1 Rocket 4.4 18:34:08 36° NW 18:34:08 36° NW 18:37:18 10° NNW
Terra 3.6 18:35:11 28° NNW 18:35:11 28° NNW 18:37:31 10° NNW
SL-16 R/B 3.6 18:53:31 35° NW 18:53:31 35° NW 18:58:10 10° N
USA 267 4.2 19:21:02 42° NNW 19:21:02 42° NNW 19:25:31 10° NW
ATLAS 2AS CENTAUR R/B 4.5 20:46:00 10° NNW 20:49:08 25° N 20:49:08 25° N
ADEOS II 4.0 22:47:48 10° NNE 22:50:27 25° NE 22:50:27 25° NE
IDEFIX/ARIANE 42P 4.5 22:52:37 10° NNE 22:54:44 25° NNE 22:54:44 25° NNE
CZ-2D R/B 3.7 22:53:53 10° NNE 22:56:51 32° NNE 22:56:51 32° NNE
Cosmos 2360 Rocket 4.1 23:00:00 10° N 23:04:37 25° NE 23:09:13 10° ESE
USA 281 3.6 23:08:02 59° NNE 23:08:02 59° NNE 23:13:43 10° NNW
CENTAUR R/B 3.6 23:14:33 34° E 23:14:33 34° E 23:19:29 10° NE
COSMOS 2455 3.7 23:17:48 47° ENE 23:17:48 47° ENE 23:22:23 10° NE
Cosmos 2322 Rocket 3.4 23:12:05 10° N 23:17:23 38° ENE 23:18:44 34° E
ALOS 4.2 23:17:24 10° NNE 23:19:49 27° NE 23:19:49 27° NE
Cosmos 2181 Rocket 4.4 23:24:01 61° NNE 23:24:01 61° NNE 23:29:16 10° N
Cosmos 2082 Rocket 3.9 23:25:38 24° NNW 23:25:38 24° NNW 23:28:27 10° N
Cosmos 2333 Rocket 3.1 23:35:35 10° NNW 23:41:05 46° ENE 23:46:32 10° SE
SL-16 R/B 3.8 23:35:36 10° NNW 23:37:43 24° NNW 23:37:43 24° NNW
Resurs 1-4 Rocket 3.4 23:41:47 10° N 23:44:44 31° NNW 23:44:44 31° NNW
Cosmos 407 Rocket 4.1 23:50:20 52° N 23:50:20 52° N 23:54:21 10° NNE
SL-16 R/B 2.5 23:51:12 73° SE 23:51:51 84° ENE 23:58:07 10° NNW
Envisat 3.7 23:48:12 10° NNE 23:53:08 48° E 23:53:23 48° ESE
